This demonstration page uses our WeatherBlox Daily Observations layout. Learn more.

Left ArrowRight Arrow

44.89941, -97.11507

Hourly Observations for January 8, 2016

Temp ( °F °C ) Dew Point ( °F °C ) Humidity (%) Winds ( mph kmh ) Pressure ( in mb ) Visibility ( mi km ) Precip ( " mm )
12:36 am 00:36 Mostly Cloudy with Light Snow 30 -1.1 28 -2.2 92 92 NNE 8 13 29.91 1013 1 1 0.01 0.25
12:44 am 00:44 Cloudy with Light Snow 30 -1.1 28 -2.2 92 92 NNE 9 15 29.91 1013 1 2 0.01 0.25
12:53 am 00:53 Cloudy with Light Snow 30 -1.1 28 -2.2 92 92 NNE 10 17 29.88 1012 1 2 0.01 0.25
12:58 am 00:58 Cloudy with Mist and Fog 30 -1.1 28 -2.2 92 92 NNE 9 15 29.91 1013 2 3 0.00 0.03
1:08 am 01:08 Cloudy with Mist and Fog 30 -1.1 27 -2.8 88 88 NNE 12 19 29.91 1013 1 2 0.00 0.03
1:17 am 01:17 Mostly Cloudy with Freezing Fog 29 -1.7 27 -2.8 92 92 NNE 9 15 29.91 1013 1 1 0.00 0.03
1:24 am 01:24 Mostly Cloudy with Freezing Fog 29 -1.7 27 -2.8 92 92 N 9 15 29.91 1013 0 0 0.00 0.03
1:53 am 01:53 Mostly Cloudy with Freezing Fog 29 -1.7 27 -2.8 92 92 N 8 13 29.88 1012 0 0 0.00 0.03
2:04 am 02:04 Mostly Cloudy with Freezing Fog 29 -1.7 27 -2.8 92 92 N 9 15 29.91 1013 1 1 0.00 0.00
2:41 am 02:41 Cloudy with Mist and Fog 29 -1.7 27 -2.8 92 92 N 10 17 29.91 1013 2 2 0.00 0.00
2:48 am 02:48 Cloudy with Mist and Fog 28 -2 27 -3 93 93 N 10 17 29.91 1013 3 5 0.00 0.00
3:10 am 03:10 Cloudy with Light Snow 28 -2.2 26 -3.3 92 92 N 10 17 29.91 1013 3 4 0.00 0.03
3:23 am 03:23 Cloudy with Light Snow 28 -2.2 26 -3.3 92 92 N 10 17 29.91 1013 2 2 0.00 0.03
3:37 am 03:37 Cloudy with Mist and Fog 28 -2.2 25 -3.9 88 88 N 12 19 29.91 1013 3 4 0.00 0.03
3:49 am 03:49 Cloudy with Mist and Fog 28 -2 25 -4 86 86 N 12 19 29.91 1013 3 5 0.00 0.03
3:53 am 03:53 Cloudy with Mist and Fog 28 -2.2 25 -3.9 88 88 N 10 17 29.89 1012 3 5 0.00 0.03
4:08 am 04:08 Cloudy with Mist and Fog 28 -2.2 25 -3.9 88 88 N 12 19 29.91 1013 3 4 0.00 0.00
4:30 am 04:30 Cloudy with Mist and Fog 28 -2.2 25 -3.9 88 88 NNE 13 20 29.91 1013 3 4 0.00 0.00
4:53 am 04:53 Cloudy with Mist and Fog 27 -2.8 24 -4.4 89 89 N 13 20 29.89 1012 3 4 0.00 0.00
5:04 am 05:04 Cloudy with Mist and Fog 27 -2.8 24 -4.4 89 89 N 17 28 29.94 1014 3 5 0.00 0.00
5:49 am 05:49 Cloudy with Mist and Fog 25 -4 21 -6 86 86 NNE 17 28 29.97 1015 6 10 0.00 0.00
5:53 am 05:53 Cloudy with Mist and Fog 25 -3.9 21 -6.1 85 85 N 16 26 29.91 1013 6 10 0.00 0.00
6:01 am 06:01 Cloudy with Mist and Fog 25 -3.9 21 -6.1 85 85 N 14 22 29.97 1015 5 8 0.00 0.00
6:22 am 06:22 Cloudy with Mist and Fog 24 -4.4 20 -6.7 84 84 N 17 28 29.97 1015 5 8 0.00 0.00
6:50 am 06:50 Cloudy with Mist and Fog 25 -4 19 -7 80 80 N 15 24 29.97 1015 3 5 0.00 0.03
6:53 am 06:53 Cloudy with Mist and Fog 24 -4.4 20 -6.7 84 84 N 16 26 29.92 1013 3 5 0.00 0.03
7:07 am 07:07 Cloudy with Mist and Fog 23 -5 19 -7.2 85 85 N 17 28 29.97 1015 4 6 0.00 0.00
7:40 am 07:40 Windy with Snow Likely 23 -5 19 -7.2 85 85 N 20 31 30.00 1016 4 6 0.00 0.03
7:53 am 07:53 Cloudy with Light Snow 23 -5 19 -7.2 85 85 N 18 30 29.93 1014 6 10 0.00 0.03
8:19 am 08:19 Cloudy with Mist and Fog 22 -5.6 19 -7.2 89 89 N 16 26 30.00 1016 6 10 0.00 0.03
8:50 am 08:50 Cloudy 21 -6 18 -8 86 86 N 16 26 30.00 1016 10 16 0.00 0.03
8:53 am 08:53 Cloudy 22 -5.6 18 -7.8 85 85 N 14 22 29.96 1014 10 16 0.00 0.03
9:05 am 09:05 Cloudy 22 -5.6 18 -7.8 85 85 N 18 30 30.00 1016 10 16 0.00 0.00
9:53 am 09:53 Cloudy 22 -5.6 17 -8.3 82 82 N 15 24 29.97 1015 10 16 0.00 0.00
10:05 am 10:05 Cloudy 22 -5.6 17 -8.3 82 82 N 15 24 30.06 1018 8 13 0.00 0.00
10:45 am 10:45 Cloudy 22 -5.6 18 -7.8 85 85 N 16 26 30.06 1018 7 11 0.00 0.00
10:53 am 10:53 Cloudy with Haze 23 -5 18 -7.8 81 81 N 20 31 29.97 1015 6 10 0.00 0.00
11:53 am 11:53 Cloudy with Haze 23 -5 18 -7.8 81 81 NNW 20 31 29.97 1015 6 10 0.00 0.00
12:53 pm 12:53 Cloudy with Haze 23 -5 18 -7.8 81 81 N 16 26 29.96 1015 6 10 0.00 0.03
1:53 pm 13:53 Cloudy 22 -5.6 17 -8.3 82 82 NNW 18 30 29.96 1015 10 16 0.00 0.03
2:53 pm 14:53 Cloudy with Haze 20 -6.7 14 -10 78 78 NNW 18 30 29.98 1015 6 10 0.00 0.00
3:42 pm 15:42 Cloudy 18 -7.8 11 -11.7 74 74 N 18 30 30.09 1019 7 11 0.00 0.00
3:53 pm 15:53 Windy with Snow Likely 18 -7.8 11 -11.7 74 74 N 21 33 30.01 1016 3 4 0.00 0.03
4:01 pm 16:01 Windy with Snow Likely 18 -7.8 11 -11.7 74 74 N 20 31 30.09 1019 4 6 0.00 0.03
4:53 pm 16:53 Windy with Snow Likely 17 -8.3 11 -11.7 77 77 N 20 31 30.03 1017 7 11 0.00 0.03
5:40 pm 17:40 Cloudy 16 -8.9 9 -12.8 74 74 N 21 33 30.12 1020 10 16 0.00 0.03
5:44 pm 17:44 Cloudy 16 -8.9 10 -12.2 77 77 NNW 18 30 30.12 1020 7 11 0.00 0.03
5:53 pm 17:53 Windy with Snow Likely 16 -8.9 10 -12.2 77 77 N 22 35 30.06 1018 6 10 0.00 0.03
5:56 pm 17:56 Windy with Snow Likely 16 -8.9 9 -12.8 74 74 NNW 22 35 30.12 1020 8 13 0.00 0.03
6:53 pm 18:53 Windy with Snow Likely 14 -10 7 -13.9 73 73 NNW 21 33 30.07 1018 8 13 0.00 0.03
7:53 pm 19:53 Cloudy with Light Snow 11 -11.7 5 -15 77 77 N 18 30 30.09 1019 5 8 0.00 0.03
8:35 pm 20:35 Mostly Cloudy 8 -13.3 2 -16.7 76 76 N 18 30 30.21 1023 8 13 0.00 0.03
8:53 pm 20:53 Mostly Cloudy 7 -13.9 1 -17.2 76 76 N 18 30 30.12 1020 10 16 0.00 0.03
9:53 pm 21:53 Mostly Cloudy with Haze 5 -15 -1 -18.3 76 76 NNW 16 26 30.14 1021 6 10 0.00 0.00
10:36 pm 22:36 Mostly Cloudy 3 -16.1 -3 -19.4 76 76 N 16 26 30.24 1024 10 16 0.00 0.00
10:43 pm 22:43 Mostly Cloudy 3 -16.1 -3 -19.4 76 76 N 17 28 30.24 1024 9 14 0.00 0.00
10:53 pm 22:53 Mostly Cloudy 3 -16.1 -4 -20 72 72 N 14 22 30.16 1022 8 13 0.00 0.00
11:12 pm 23:12 Cloudy with Haze 3 -16.1 -3 -19.4 76 76 N 14 22 30.24 1024 6 10 0.00 0.00
11:53 pm 23:53 Cloudy with Haze 3 -16.1 -2 -18.9 79 79 N 14 22 30.17 1022 3 5 0.00 0.00

Powered by AerisWeather